Change the Weather History Date:

Saturday, November 2, 2013

  Actual Average Record
Temperature  
Mean Temperature 50 °F 58 °F  
Max Temperature 63 °F 71 °F 87 °F (2012)
Min Temperature 36 °F 45 °F 20 °F (1951)
Degree Days  
Heating Degree Days 15 8  
Month to date heating degree days 22 16  
Since 1 July heating degree days 166 149  
Cooling Degree Days 0 1  
Month to date cooling degree days 0 2  
Year to date cooling degree days 2023 1936  
Moisture  
Dew Point 39 °F    
Average Humidity 66    
Maximum Humidity 100    
Minimum Humidity 32    
Precipitation  
Precipitation 0.00 in 0.16 in 1.71 in (1946)
Month to date precipitation 0.00 0.32  
Year to date precipitation 28.91 40.04  
Snow  
Snow 0.00 in - - ()
Month to date snowfall 0.0  
Since 1 July snowfall 0.0  
Since 1 September snowfall 0.0  
Snow Depth 0.00 in    
Sea Level Pressure  
Sea Level Pressure 30.16 in    
Wind  
Wind Speed 4 mph (NW)    
Max Wind Speed 17 mph    
Max Gust Speed 29 mph    
Visibility 8 miles    
Events      
T = Trace of Precipitation, MM = Missing Value Source: NWS Daily Summary

Daily Weather History Graph

Daily Weather History Graph

Search for Another Location

Airport or City:

Trip Planner

Search our weather history database for the weather conditions in past years. The results will help you decide how hot, cold, wet, or windy it might be!

Date:

Astronomy

Nov. 02, 2013 Rise Set
Actual Time 7:38 AM CDT 6:23 PM CDT
Civil Twilight 7:12 AM CDT 6:49 PM CDT
Nautical Twilight 6:42 AM CDT 7:19 PM CDT
Astronomical Twilight 6:13 AM CDT 7:48 PM CDT
Moon 6:38 AM CDT (11/2) 5:54 PM CDT (11/2)
Length of Visible Light 11h 37m
Length of Day
10h 45m
Waning Crescent, 1% of the Moon is Illuminated
Nov 2
Waning Crescent
Nov 3
New
Nov 9
First Quarter
Nov 17
Full
Nov 25
Last Quarter

Hourly Weather History & Observations

Time (CDT) Temp. Windchill Dew Point Humidity Pressure Visibility Wind Dir Wind Speed Gust Speed Precip Events Conditions
12:53 AM 57.0 °F - 42.1 °F 57% 30.01 in 10.0 mi North 3.5 mph - N/A   Clear
1:53 AM 50.0 °F - 43.0 °F 77% 30.02 in 10.0 mi Calm Calm - N/A   Clear
2:53 AM 46.0 °F 44.8 °F 43.0 °F 89% 30.04 in 10.0 mi SW 3.5 mph - N/A   Clear
3:53 AM 45.0 °F - 43.0 °F 93% 30.05 in 10.0 mi Calm Calm - N/A   Clear
4:53 AM 42.1 °F - 42.1 °F 100% 30.07 in 10.0 mi Calm Calm - N/A   Clear
5:53 AM 42.1 °F 40.2 °F 41.0 °F 96% 30.09 in 10.0 mi SW 3.5 mph - N/A   Clear
6:53 AM 42.1 °F - 39.9 °F 92% 30.11 in 10.0 mi Calm Calm - N/A   Clear
7:25 AM 39.0 °F - 39.0 °F 100% 30.12 in 1.8 mi Calm Calm - N/A   Clear
7:33 AM 39.9 °F - 39.0 °F 97% 30.12 in 3.0 mi Calm Calm - N/A   Clear
7:53 AM 39.9 °F - 39.0 °F 97% 30.12 in 6.0 mi Calm Calm - N/A   Clear
8:53 AM 46.9 °F - 44.1 °F 90% 30.16 in 10.0 mi West 3.5 mph - N/A   Clear
9:53 AM 55.0 °F - 39.9 °F 57% 30.18 in 10.0 mi NNW 8.1 mph 18.4 mph N/A   Clear
10:53 AM 57.0 °F - 37.9 °F 49% 30.20 in 10.0 mi NNW 9.2 mph 21.9 mph N/A   Clear
11:53 AM 59.0 °F - 37.0 °F 44% 30.21 in 10.0 mi NW 16.1 mph 21.9 mph N/A   Clear
12:53 PM 61.0 °F - 36.0 °F 39% 30.20 in 10.0 mi North 10.4 mph 18.4 mph N/A   Clear
1:53 PM 62.1 °F - 36.0 °F 38% 30.18 in 10.0 mi NNW 10.4 mph - N/A   Clear
2:53 PM 63.0 °F - 33.1 °F 33% 30.17 in 10.0 mi NNW 10.4 mph 23.0 mph N/A   Clear
3:53 PM 62.1 °F - 32.0 °F 32% 30.16 in 10.0 mi NW 18.4 mph 28.8 mph N/A   Clear
4:53 PM 62.1 °F - 34.0 °F 35% 30.16 in 10.0 mi North 6.9 mph - N/A   Clear
5:53 PM 59.0 °F - 35.1 °F 41% 30.17 in 10.0 mi NW 5.8 mph - N/A   Clear
6:53 PM 53.1 °F - 37.9 °F 57% 30.17 in 10.0 mi Calm Calm - N/A   Clear
7:53 PM 45.0 °F - 39.9 °F 82% 30.20 in 10.0 mi Calm Calm - N/A   Clear
8:53 PM 43.0 °F - 39.9 °F 89% 30.22 in 10.0 mi Calm Calm - N/A   Clear
9:53 PM 39.9 °F - 39.9 °F 100% 30.22 in 9.0 mi Calm Calm - N/A   Clear
10:53 PM 39.0 °F - 37.9 °F 96% 30.23 in 7.0 mi Calm Calm - N/A   Clear
11:16 PM 39.0 °F - 39.0 °F 100% 30.23 in 1.8 mi Calm Calm - N/A   Clear
11:32 PM 37.9 °F - 37.9 °F 100% 30.23 in 2.0 mi Calm Calm - N/A   Clear
11:39 PM 37.0 °F 34.5 °F 37.0 °F 100% 30.23 in 1.0 mi NW 3.5 mph - N/A   Clear
11:45 PM 37.0 °F - 37.0 °F 100% 30.23 in 3.0 mi Calm Calm - N/A   Clear
11:53 PM 37.0 °F - 37.0 °F 100% 30.23 in 6.0 mi Calm Calm - N/A   Clear